QPF
0.00 0.00 0.00 0.00 0.00 0.00 0.00 0.00 0.00 0.00 0.00 0.00 0.00 0.00 0.00 0.00 0.00 0.00 0.00 0.00 0.00 0.00 0.00 0.00 0.00 0.00 0.00 0.00 0.00 0.00 0.00 0.00 0.00 0.00 0.00 0.00 0.00 0.00 0.00 0.00 0.00 0.00 0.00
0.00 0.00 0.00 0.00 0.00 0.00 0.00 0.00 0.00 0.00 0.00 0.00 0.00 0.00 0.00 0.00 0.00 0.00 0.00 0.00 0.00 0.00 0.00 0.00 0.00 0.00 0.00 0.00 0.00 0.00 0.00 0.00 0.00 0.00 0.00 0.00 0.00 0.00 0.00 0.00 0.00 0.00 0.00
0.00 0.00 0.00 0.00 0.00 0.00 0.00 0.00 0.00 0.00 0.00 0.00 0.00 0.00 0.00 0.00 0.00 0.00 0.00 0.00 0.00 0.00 0.00 0.00 0.00 0.00 0.00 0.00 0.00 0.00 0.00 0.00 0.00 0.00 0.00 0.00 0.00 0.00 0.00 0.00 0.00 0.00 0.00
0.00 0.00 0.00 0.00 0.00 0.00 0.00 0.00 0.00 0.00 0.00 0.00 0.00 0.00 0.00 0.00 0.00 0.00 0.00 0.00 0.00 0.00 0.00 0.00 0.00 0.00 0.00 0.00 0.00 0.00 0.00 0.01 0.01 0.01 0.01 0.00 0.00 0.00 0.01 0.01 0.01 0.01 0.01
0.00 0.00 0.00 0.00 0.00 0.00 0.00 0.00 0.00 0.00 0.00 0.00 0.00 0.00 0.00 0.00 0.00 0.00 0.00 0.00 0.00 0.00 0.00 0.00 0.00 0.00 0.01 0.01 0.02 0.02 0.02 0.03 0.03 0.03 0.02 0.01 0.01 0.01 0.01 0.01 0.02 0.02 0.03
0.00 0.00 0.00 0.00 0.00 0.00 0.00 0.00 0.00 0.00 0.00 0.00 0.00 0.00 0.00 0.00 0.00 0.00 0.00 0.00 0.00 0.00 0.00 0.00 0.00 0.01 0.01 0.02 0.03 0.04 0.04 0.05 0.06 0.06 0.05 0.03 0.02 0.01 0.01 0.02 0.03 0.05 0.04
0.00 0.00 0.00 0.00 0.00 0.00 0.00 0.00 0.00 0.00 0.00 0.00 0.00 0.00 0.00 0.00 0.00 0.00 0.00 0.01 0.01 0.01 0.01 0.01 0.01 0.01 0.01 0.01 0.01 0.02 0.03 0.04 0.05 0.06 0.07 0.05 0.03 0.02 0.04 0.05 0.04 0.03 0.01
0.00 0.00 0.00 0.00 0.00 0.00 0.00 0.00 0.00 0.00 0.00 0.00 0.00 0.00 0.00 0.00 0.00 0.00 0.00 0.01 0.00 0.00 0.00 0.01 0.01 0.00 0.00 0.01 0.01 0.01 0.01 0.01 0.02 0.03 0.04 0.04 0.03 0.04 0.05 0.05 0.04 0.05 0.04
0.00 0.00 0.00 0.00 0.00 0.00 0.00 0.00 0.00 0.00 0.00 0.00 0.00 0.00 0.00 0.00 0.00 0.00 0.01 0.01 0.01 0.01 0.00 0.00 0.00 0.00 0.01 0.02 0.02 0.02 0.01 0.01 0.01 0.02 0.02 0.03 0.04 0.06 0.08 0.10 0.11 0.12 0.08
0.00 0.00 0.00 0.00 0.00 0.00 0.00 0.00 0.00 0.00 0.00 0.00 0.00 0.00 0.00 0.00 0.00 0.00 0.01 0.01 0.01 0.01 0.01 0.01 0.01 0.02 0.03 0.04 0.03 0.03 0.03 0.01 0.01 0.01 0.01 0.02 0.03 0.05 0.09 0.12 0.12 0.10 0.06
0.00 0.00 0.00 0.00 0.00 0.00 0.00 0.00 0.00 0.00 0.00 0.00 0.00 0.00 0.00 0.00 0.00 0.00 0.01 0.01 0.02 0.02 0.02 0.02 0.01 0.02 0.03 0.03 0.04 0.03 0.03 0.03 0.03 0.03 0.02 0.02 0.02 0.02 0.03 0.06 0.10 0.11 0.09
0.00 0.00 0.00 0.00 0.00 0.00 0.00 0.00 0.00 0.00 0.00 0.00 0.00 0.00 0.00 0.00 0.00 0.00 0.01 0.02 0.03 0.03 0.02 0.02 0.01 0.02 0.03 0.04 0.04 0.04 0.05 0.05 0.05 0.05 0.04 0.04 0.03 0.02 0.02 0.03 0.05 0.08 0.07
0.00 0.00 0.00 0.00 0.00 0.00 0.00 0.00 0.00 0.00 0.00 0.00 0.00 0.00 0.00 0.00 0.00 0.01 0.01 0.02 0.02 0.02 0.02 0.02 0.03 0.03 0.04 0.03 0.03 0.03 0.04 0.04 0.04 0.05 0.04 0.03 0.02 0.02 0.02 0.03 0.05 0.06 0.08
0.00 0.00 0.00 0.00 0.00 0.00 0.00 0.00 0.00 0.00 0.00 0.01 0.01 0.02 0.01 0.01 0.01 0.01 0.02 0.02 0.02 0.02 0.02 0.02 0.03 0.02 0.02 0.02 0.02 0.02 0.02 0.03 0.03 0.03 0.03 0.02 0.02 0.02 0.03 0.03 0.05 0.05 0.08
0.00 0.00 0.00 0.00 0.00 0.00 0.00 0.00 0.00 0.00 0.00 0.01 0.02 0.03 0.04 0.04 0.02 0.03 0.03 0.03 0.04 0.04 0.04 0.03 0.02 0.02 0.02 0.02 0.02 0.01 0.01 0.02 0.02 0.02 0.03 0.03 0.03 0.03 0.03 0.03 0.05 0.05 0.06
0.00 0.00 0.00 0.00 0.00 0.00 0.00 0.00 0.00 0.00 0.00 0.01 0.01 0.01 0.02 0.02 0.02 0.02 0.03 0.03 0.03 0.03 0.03 0.03 0.02 0.02 0.02 0.02 0.02 0.01 0.01 0.01 0.02 0.03 0.03 0.03 0.03 0.03 0.03 0.03 0.04 0.05 0.04
0.00 0.00 0.00 0.00 0.00 0.00 0.00 0.01 0.01 0.00 0.00 0.00 0.00 0.00 0.01 0.01 0.01 0.02 0.02 0.02 0.02 0.02 0.02 0.02 0.01 0.01 0.01 0.01 0.01 0.01 0.01 0.01 0.02 0.03 0.03 0.03 0.03 0.03 0.04 0.04 0.04 0.04 0.04
0.00 0.00 0.00 0.00 0.00 0.00 0.01 0.01 0.01 0.01 0.01 0.00 0.00 0.00 0.00 0.01 0.01 0.01 0.01 0.01 0.01 0.00 0.01 0.02 0.01 0.01 0.01 0.01 0.01 0.01 0.01 0.02 0.02 0.03 0.03 0.03 0.03 0.03 0.03 0.03 0.03 0.03 0.03
0.00 0.00 0.00 0.00 0.00 0.00 0.01 0.01 0.01 0.01 0.01 0.01 0.00 0.00 0.00 0.00 0.00 0.00 0.01 0.01 0.02 0.01 0.01 0.01 0.01 0.01 0.01 0.01 0.01 0.01 0.01 0.02 0.02 0.02 0.02 0.02 0.03 0.03 0.03 0.03 0.03 0.03 0.03
0.00 0.00 0.00 0.00 0.00 0.00 0.01 0.01 0.01 0.01 0.01 0.01 0.01 0.00 0.01 0.01 0.01 0.00 0.00 0.01 0.02 0.02 0.01 0.01 0.01 0.01 0.01 0.01 0.01 0.01 0.01 0.01 0.01 0.02 0.02 0.02 0.02 0.03 0.03 0.03 0.03 0.03 0.03
0.00 0.00 0.00 0.00 0.00 0.01 0.01 0.01 0.02 0.02 0.02 0.01 0.01 0.00 0.02 0.03 0.02 0.01 0.01 0.01 0.01 0.01 0.01 0.01 0.01 0.01 0.01 0.01 0.01 0.01 0.01 0.01 0.01 0.01 0.01 0.01 0.02 0.02 0.02 0.02 0.02 0.02 0.02
0.00 0.00 0.00 0.01 0.01 0.01 0.01 0.01 0.02 0.02 0.02 0.01 0.01 0.01 0.01 0.01 0.01 0.01 0.01 0.01 0.01 0.01 0.01 0.01 0.01 0.01 0.01 0.01 0.02 0.02 0.01 0.01 0.01 0.01 0.01 0.01 0.01 0.02 0.02 0.02 0.02 0.02 0.02
0.00 0.01 0.01 0.01 0.01 0.01 0.01 0.01 0.01 0.01 0.01 0.01 0.01 0.01 0.01 0.01 0.01 0.01 0.01 0.01 0.01 0.01 0.01 0.01 0.01 0.01 0.01 0.01 0.01 0.01 0.01 0.01 0.01 0.01 0.02 0.01 0.01 0.01 0.01 0.01 0.01 0.01 0.01
0.01 0.01 0.01 0.01 0.01 0.01 0.01 0.01 0.01 0.01 0.01 0.01 0.01 0.01 0.01 0.01 0.01 0.01 0.01 0.01 0.01 0.01 0.00 0.01 0.01 0.01 0.01 0.01 0.01 0.01 0.01 0.01 0.02 0.02 0.02 0.02 0.02 0.01 0.01 0.02 0.01 0.01 0.01
0.01 0.01 0.01 0.01 0.01 0.01 0.01 0.01 0.01 0.01 0.01 0.01 0.01 0.01 0.01 0.01 0.01 0.01 0.01 0.01 0.01 0.00 0.00 0.00 0.01 0.01 0.01 0.01 0.01 0.01 0.01 0.01 0.02 0.02 0.03 0.03 0.02 0.02 0.02 0.02 0.02 0.01 0.01
0.00 0.01 0.00 0.01 0.01 0.01 0.01 0.01 0.01 0.01 0.01 0.01 0.01 0.01 0.01 0.01 0.01 0.01 0.01 0.01 0.01 0.00 0.00 0.00 0.01 0.01 0.01 0.01 0.01 0.01 0.01 0.01 0.02 0.02 0.03 0.04 0.03 0.02 0.02 0.02 0.02 0.02 0.02
MSLP
1020.27 1020.34 1020.36 1020.30 1020.16 1019.96 1019.69 1019.38 1019.05 1018.72 1018.37 1018.02 1017.66 1017.28 1016.86 1016.40 1015.92 1015.41 1014.90 1014.40 1013.94 1013.52 1013.16 1012.84 1012.54 1012.25 1011.93 1011.56 1011.14 1010.64 1010.09 1009.50 1008.90 1008.33 1007.83 1007.43 1007.14 1006.98 1006.93 1006.96 1007.05 1007.16 1007.25
1020.28 1020.31 1020.28 1020.18 1019.99 1019.73 1019.41 1019.05 1018.67 1018.29 1017.91 1017.54 1017.17 1016.78 1016.36 1015.91 1015.42 1014.89 1014.35 1013.81 1013.30 1012.82 1012.40 1012.02 1011.69 1011.37 1011.06 1010.72 1010.33 1009.88 1009.37 1008.83 1008.26 1007.72 1007.22 1006.81 1006.50 1006.30 1006.22 1006.23 1006.30 1006.39 1006.48
1020.30 1020.28 1020.20 1020.04 1019.79 1019.46 1019.07 1018.65 1018.21 1017.78 1017.36 1016.97 1016.59 1016.20 1015.80 1015.36 1014.88 1014.37 1013.82 1013.26 1012.72 1012.19 1011.72 1011.29 1010.90 1010.56 1010.22 1009.88 1009.51 1009.10 1008.64 1008.14 1007.61 1007.09 1006.61 1006.20 1005.88 1005.66 1005.55 1005.52 1005.56 1005.63 1005.71
1020.31 1020.24 1020.10 1019.87 1019.56 1019.16 1018.70 1018.21 1017.72 1017.23 1016.78 1016.35 1015.96 1015.57 1015.18 1014.76 1014.31 1013.81 1013.28 1012.72 1012.15 1011.60 1011.08 1010.60 1010.16 1009.77 1009.41 1009.05 1008.68 1008.28 1007.85 1007.38 1006.90 1006.41 1005.96 1005.56 1005.23 1005.00 1004.86 1004.80 1004.80 1004.85 1004.90
1020.29 1020.17 1019.97 1019.68 1019.30 1018.84 1018.33 1017.78 1017.23 1016.70 1016.20 1015.74 1015.32 1014.92 1014.52 1014.12 1013.68 1013.20 1012.68 1012.13 1011.55 1010.98 1010.42 1009.89 1009.41 1008.96 1008.56 1008.16 1007.78 1007.39 1006.97 1006.53 1006.08 1005.63 1005.20 1004.82 1004.50 1004.26 1004.10 1004.02 1004.00 1004.01 1004.04
1020.21 1020.04 1019.78 1019.45 1019.03 1018.52 1017.97 1017.38 1016.79 1016.21 1015.66 1015.16 1014.71 1014.28 1013.87 1013.45 1013.01 1012.54 1012.02 1011.46 1010.87 1010.28 1009.68 1009.11 1008.58 1008.08 1007.62 1007.19 1006.78 1006.37 1005.96 1005.55 1005.12 1004.71 1004.31 1003.96 1003.66 1003.42 1003.26 1003.16 1003.12 1003.12 1003.13
1020.03 1019.81 1019.53 1019.16 1018.72 1018.20 1017.62 1017.02 1016.40 1015.79 1015.20 1014.66 1014.16 1013.69 1013.24 1012.78 1012.31 1011.81 1011.27 1010.69 1010.08 1009.46 1008.83 1008.22 1007.63 1007.08 1006.57 1006.10 1005.66 1005.23 1004.82 1004.41 1004.02 1003.63 1003.27 1002.95 1002.68 1002.46 1002.31 1002.22 1002.17 1002.16 1002.18
1019.75 1019.49 1019.19 1018.81 1018.36 1017.85 1017.28 1016.68 1016.05 1015.43 1014.82 1014.23 1013.68 1013.15 1012.63 1012.12 1011.59 1011.04 1010.46 1009.84 1009.19 1008.53 1007.86 1007.20 1006.57 1005.98 1005.42 1004.91 1004.43 1003.99 1003.56 1003.16 1002.79 1002.43 1002.11 1001.83 1001.59 1001.41 1001.28 1001.21 1001.18 1001.19 1001.22
1019.36 1019.08 1018.76 1018.39 1017.96 1017.47 1016.93 1016.35 1015.73 1015.10 1014.47 1013.85 1013.24 1012.65 1012.06 1011.47 1010.87 1010.25 1009.60 1008.93 1008.24 1007.53 1006.82 1006.12 1005.45 1004.81 1004.22 1003.67 1003.16 1002.70 1002.27 1001.87 1001.51 1001.18 1000.89 1000.65 1000.45 1000.31 1000.22 1000.19 1000.19 1000.23 1000.29
1018.89 1018.60 1018.28 1017.92 1017.51 1017.05 1016.54 1015.98 1015.39 1014.76 1014.12 1013.47 1012.82 1012.16 1011.51 1010.84 1010.16 1009.47 1008.76 1008.02 1007.28 1006.53 1005.78 1005.05 1004.35 1003.68 1003.06 1002.48 1001.95 1001.46 1001.02 1000.63 1000.27 999.96 999.70 999.49 999.34 999.24 999.20 999.20 999.25 999.33 999.44
1018.38 1018.08 1017.75 1017.40 1017.00 1016.57 1016.08 1015.55 1014.98 1014.36 1013.72 1013.05 1012.36 1011.66 1010.95 1010.22 1009.48 1008.72 1007.95 1007.17 1006.39 1005.61 1004.84 1004.09 1003.36 1002.68 1002.04 1001.44 1000.89 1000.39 999.94 999.53 999.18 998.88 998.64 998.45 998.33 998.26 998.26 998.30 998.39 998.52 998.66
1017.86 1017.54 1017.21 1016.85 1016.46 1016.03 1015.56 1015.04 1014.48 1013.87 1013.23 1012.55 1011.84 1011.11 1010.36 1009.60 1008.82 1008.03 1007.23 1006.42 1005.62 1004.83 1004.06 1003.30 1002.58 1001.89 1001.24 1000.63 1000.07 999.56 999.09 998.68 998.32 998.01 997.77 997.59 997.48 997.44 997.45 997.53 997.65 997.81 997.99
1017.35 1017.02 1016.68 1016.31 1015.90 1015.46 1014.98 1014.45 1013.88 1013.27 1012.63 1011.95 1011.23 1010.50 1009.74 1008.97 1008.18 1007.39 1006.60 1005.80 1005.01 1004.24 1003.48 1002.74 1002.03 1001.35 1000.71 1000.10 999.53 999.00 998.52 998.09 997.72 997.40 997.14 996.96 996.84 996.80 996.82 996.90 997.03 997.21 997.41
1016.88 1016.54 1016.18 1015.78 1015.35 1014.87 1014.36 1013.81 1013.22 1012.60 1011.94 1011.26 1010.56 1009.83 1009.09 1008.34 1007.58 1006.82 1006.06 1005.30 1004.55 1003.81 1003.09 1002.39 1001.71 1001.06 1000.43 999.83 999.26 998.73 998.24 997.79 997.39 997.04 996.77 996.56 996.42 996.36 996.36 996.43 996.55 996.72 996.91
1016.44 1016.10 1015.71 1015.28 1014.81 1014.29 1013.73 1013.14 1012.52 1011.87 1011.21 1010.52 1009.83 1009.13 1008.43 1007.72 1007.01 1006.30 1005.60 1004.90 1004.21 1003.53 1002.87 1002.22 1001.58 1000.97 1000.36 999.78 999.22 998.68 998.18 997.71 997.29 996.92 996.61 996.37 996.20 996.11 996.08 996.11 996.20 996.34 996.51
1016.01 1015.67 1015.27 1014.81 1014.30 1013.74 1013.13 1012.50 1011.84 1011.16 1010.48 1009.80 1009.12 1008.44 1007.77 1007.12 1006.46 1005.82 1005.19 1004.56 1003.95 1003.34 1002.74 1002.15 1001.57 1000.99 1000.43 999.87 999.32 998.80 998.29 997.81 997.37 996.98 996.64 996.37 996.16 996.03 995.96 995.95 995.99 996.08 996.20
1015.56 1015.22 1014.82 1014.35 1013.81 1013.21 1012.57 1011.90 1011.21 1010.51 1009.81 1009.12 1008.45 1007.79 1007.16 1006.55 1005.95 1005.37 1004.80 1004.25 1003.70 1003.17 1002.64 1002.11 1001.59 1001.06 1000.54 1000.01 999.49 998.98 998.48 998.00 997.56 997.15 996.80 996.50 996.26 996.09 995.97 995.91 995.91 995.94 996.00
1015.06 1014.74 1014.34 1013.87 1013.33 1012.72 1012.07 1011.37 1010.66 1009.94 1009.23 1008.53 1007.86 1007.22 1006.60 1006.02 1005.46 1004.93 1004.42 1003.93 1003.45 1002.98 1002.51 1002.05 1001.58 1001.11 1000.63 1000.15 999.66 999.18 998.70 998.24 997.80 997.39 997.03 996.72 996.46 996.25 996.11 996.00 995.95 995.92 995.93
1014.48 1014.18 1013.81 1013.36 1012.84 1012.24 1011.59 1010.90 1010.19 1009.46 1008.74 1008.04 1007.36 1006.72 1006.12 1005.55 1005.01 1004.51 1004.04 1003.59 1003.16 1002.74 1002.34 1001.93 1001.52 1001.10 1000.68 1000.24 999.80 999.35 998.90 998.46 998.04 997.65 997.29 996.98 996.72 996.49 996.32 996.19 996.09 996.02 995.97
1013.80 1013.53 1013.19 1012.78 1012.30 1011.74 1011.13 1010.46 1009.77 1009.05 1008.33 1007.63 1006.94 1006.29 1005.68 1005.11 1004.58 1004.09 1003.64 1003.23 1002.84 1002.46 1002.11 1001.75 1001.39 1001.03 1000.66 1000.27 999.87 999.46 999.05 998.64 998.25 997.88 997.55 997.24 996.98 996.76 996.57 996.42 996.29 996.18 996.08
1013.03 1012.79 1012.49 1012.13 1011.70 1011.20 1010.64 1010.02 1009.35 1008.66 1007.96 1007.25 1006.56 1005.90 1005.28 1004.70 1004.17 1003.68 1003.24 1002.84 1002.48 1002.15 1001.83 1001.52 1001.21 1000.90 1000.57 1000.23 999.88 999.51 999.14 998.77 998.41 998.06 997.75 997.46 997.21 996.99 996.80 996.63 996.48 996.33 996.19
1012.19 1011.97 1011.71 1011.40 1011.03 1010.60 1010.09 1009.53 1008.91 1008.25 1007.56 1006.87 1006.18 1005.51 1004.88 1004.29 1003.75 1003.26 1002.83 1002.44 1002.10 1001.80 1001.51 1001.24 1000.98 1000.71 1000.43 1000.12 999.81 999.48 999.14 998.80 998.46 998.14 997.84 997.57 997.32 997.10 996.91 996.72 996.55 996.37 996.19
1011.31 1011.10 1010.87 1010.61 1010.30 1009.92 1009.48 1008.97 1008.40 1007.77 1007.12 1006.44 1005.76 1005.09 1004.45 1003.86 1003.32 1002.83 1002.40 1002.03 1001.70 1001.42 1001.16 1000.93 1000.70 1000.46 1000.21 999.94 999.65 999.35 999.03 998.71 998.39 998.08 997.78 997.51 997.26 997.03 996.82 996.61 996.40 996.19 995.96
1010.43 1010.22 1010.01 1009.78 1009.51 1009.18 1008.79 1008.33 1007.80 1007.22 1006.59 1005.94 1005.27 1004.62 1003.99 1003.39 1002.85 1002.37 1001.95 1001.59 1001.28 1001.01 1000.78 1000.56 1000.35 1000.14 999.91 999.65 999.38 999.09 998.78 998.46 998.14 997.83 997.52 997.24 996.97 996.72 996.48 996.23 995.97 995.70 995.40
1009.57 1009.37 1009.16 1008.95 1008.70 1008.41 1008.05 1007.62 1007.14 1006.59 1005.99 1005.37 1004.72 1004.09 1003.47 1002.89 1002.36 1001.89 1001.48 1001.13 1000.83 1000.57 1000.35 1000.14 999.93 999.72 999.50 999.25 998.98 998.68 998.37 998.04 997.71 997.38 997.06 996.74 996.44 996.14 995.84 995.54 995.22 994.87 994.49
1008.78 1008.56 1008.35 1008.14 1007.90 1007.62 1007.28 1006.88 1006.42 1005.90 1005.34 1004.74 1004.13 1003.52 1002.93 1002.37 1001.85 1001.39 1000.99 1000.64 1000.34 1000.08 999.85 999.64 999.43 999.21 998.97 998.72 998.44 998.13 997.80 997.46 997.10 996.75 996.39 996.03 995.68 995.32 994.95 994.57 994.16 993.72 993.25
Thickness
5557 5554 5551 5548 5544 5541 5538 5535 5532 5528 5524 5520 5516 5511 5506 5501 5495 5490 5485 5478 5472 5466 5459 5453 5448 5440 5434 5429 5423 5419 5414 5409 5413 5440 5438 5430 5424 5424 5424 5422 5422 5425 5431
5546 5543 5540 5537 5533 5530 5527 5523 5519 5514 5510 5505 5500 5495 5490 5484 5477 5471 5466 5459 5453 5447 5440 5433 5428 5420 5416 5410 5405 5402 5399 5394 5392 5406 5420 5412 5407 5405 5404 5404 5405 5407 5411
5534 5531 5528 5525 5522 5518 5514 5510 5505 5500 5495 5490 5484 5479 5473 5465 5458 5451 5444 5439 5432 5426 5420 5413 5408 5401 5398 5394 5390 5388 5386 5383 5380 5384 5397 5395 5391 5388 5387 5389 5389 5391 5394
5523 5519 5516 5513 5508 5504 5500 5495 5490 5485 5480 5475 5468 5462 5454 5446 5438 5430 5422 5416 5411 5405 5400 5395 5391 5386 5383 5380 5378 5376 5374 5371 5370 5370 5377 5380 5378 5376 5373 5375 5377 5379 5381
5512 5508 5504 5499 5494 5490 5485 5480 5475 5470 5464 5458 5451 5444 5436 5428 5419 5410 5403 5398 5394 5391 5388 5383 5380 5377 5374 5371 5369 5368 5364 5361 5360 5361 5365 5367 5368 5364 5363 5363 5364 5367 5371
5500 5496 5492 5486 5481 5476 5471 5466 5461 5455 5449 5442 5434 5427 5420 5411 5403 5395 5388 5386 5383 5381 5379 5377 5374 5371 5369 5367 5365 5363 5360 5356 5355 5354 5356 5357 5360 5358 5356 5355 5354 5355 5361
5489 5484 5479 5473 5468 5462 5457 5452 5446 5441 5435 5427 5419 5411 5405 5397 5388 5382 5376 5373 5372 5371 5369 5367 5366 5365 5362 5360 5359 5357 5356 5354 5352 5349 5349 5352 5351 5351 5348 5348 5347 5349 5353
5477 5473 5467 5460 5454 5448 5443 5438 5432 5426 5419 5411 5403 5395 5389 5384 5375 5370 5366 5364 5364 5363 5360 5358 5358 5357 5355 5353 5351 5350 5349 5348 5345 5343 5343 5344 5344 5343 5341 5341 5341 5341 5343
5466 5461 5454 5447 5441 5435 5429 5424 5417 5410 5403 5395 5387 5380 5375 5372 5365 5360 5356 5356 5356 5356 5354 5353 5351 5350 5350 5348 5347 5347 5347 5346 5343 5341 5341 5341 5341 5340 5338 5335 5335 5334 5338
5455 5448 5441 5433 5427 5421 5414 5408 5401 5393 5387 5380 5374 5367 5363 5361 5357 5352 5348 5348 5349 5349 5349 5347 5346 5345 5345 5344 5342 5342 5343 5342 5339 5338 5337 5337 5336 5336 5335 5333 5332 5331 5333
5441 5435 5427 5420 5413 5406 5399 5392 5384 5378 5372 5367 5363 5359 5354 5351 5349 5345 5342 5341 5341 5342 5342 5342 5342 5341 5340 5340 5339 5338 5338 5337 5336 5335 5335 5334 5332 5331 5329 5328 5326 5325 5326
5429 5422 5415 5408 5399 5391 5384 5378 5370 5363 5359 5355 5353 5352 5348 5345 5342 5340 5338 5336 5335 5335 5336 5337 5337 5336 5336 5336 5335 5335 5335 5333 5332 5331 5331 5330 5329 5328 5326 5324 5322 5320 5319
5416 5410 5403 5395 5386 5377 5369 5363 5357 5351 5346 5344 5342 5342 5342 5339 5337 5335 5333 5332 5330 5330 5331 5331 5331 5332 5331 5332 5331 5331 5330 5328 5326 5325 5326 5326 5324 5323 5320 5318 5315 5313 5311
5404 5397 5390 5382 5375 5366 5357 5349 5344 5339 5335 5333 5332 5332 5333 5333 5331 5329 5327 5327 5326 5326 5326 5326 5327 5327 5326 5325 5325 5324 5322 5321 5319 5318 5318 5318 5316 5314 5312 5310 5308 5307 5305
5390 5383 5376 5368 5361 5355 5348 5340 5333 5329 5323 5322 5322 5321 5322 5324 5323 5321 5320 5321 5320 5321 5321 5322 5322 5322 5321 5320 5318 5317 5315 5313 5312 5311 5309 5308 5307 5305 5303 5301 5299 5298 5298
5376 5370 5362 5355 5348 5342 5338 5336 5330 5323 5321 5317 5315 5314 5315 5315 5316 5316 5315 5315 5315 5315 5314 5314 5315 5314 5313 5311 5310 5309 5307 5305 5304 5303 5301 5299 5298 5296 5295 5293 5291 5290 5290
5360 5354 5347 5341 5335 5331 5327 5324 5326 5325 5319 5315 5313 5311 5310 5310 5310 5310 5310 5310 5309 5308 5307 5306 5305 5304 5303 5301 5300 5299 5299 5297 5295 5293 5291 5290 5289 5288 5286 5285 5283 5282 5281
5347 5340 5333 5328 5323 5320 5317 5314 5313 5314 5316 5316 5313 5309 5307 5306 5305 5305 5305 5304 5304 5302 5300 5298 5297 5295 5294 5293 5291 5290 5289 5288 5286 5284 5283 5282 5281 5279 5278 5277 5275 5273 5272
5335 5329 5322 5318 5314 5311 5309 5307 5306 5306 5306 5308 5309 5307 5304 5303 5301 5300 5299 5297 5296 5295 5293 5291 5289 5288 5286 5285 5283 5281 5280 5279 5277 5276 5275 5273 5272 5271 5270 5269 5267 5265 5262
5325 5318 5311 5308 5306 5304 5302 5300 5300 5300 5300 5301 5301 5300 5299 5297 5298 5297 5294 5291 5289 5288 5286 5285 5283 5281 5280 5278 5276 5275 5273 5272 5271 5269 5268 5266 5265 5263 5262 5260 5258 5257 5255
5315 5311 5305 5302 5300 5297 5296 5294 5294 5294 5294 5294 5294 5293 5291 5290 5290 5290 5289 5286 5284 5282 5280 5279 5277 5276 5274 5272 5270 5269 5267 5266 5264 5262 5260 5259 5257 5255 5254 5251 5250 5248 5246
5305 5302 5299 5296 5294 5292 5291 5290 5289 5288 5288 5288 5289 5289 5287 5285 5285 5284 5283 5282 5279 5277 5275 5273 5272 5271 5269 5266 5264 5263 5261 5260 5258 5255 5253 5251 5249 5247 5245 5243 5241 5239 5237
5297 5295 5293 5291 5289 5288 5286 5285 5283 5283 5283 5283 5283 5283 5283 5282 5281 5280 5279 5277 5275 5273 5271 5269 5268 5267 5265 5262 5259 5257 5255 5253 5251 5248 5245 5244 5242 5240 5237 5235 5233 5230 5229
5290 5288 5287 5285 5283 5282 5281 5280 5279 5279 5279 5279 5279 5279 5279 5278 5277 5276 5275 5274 5272 5270 5268 5266 5265 5263 5260 5257 5255 5253 5250 5247 5244 5242 5239 5237 5235 5233 5231 5228 5226 5225 5222
5283 5281 5279 5278 5277 5276 5276 5276 5275 5275 5275 5275 5276 5276 5276 5275 5274 5273 5272 5270 5268 5267 5265 5263 5262 5260 5257 5254 5252 5249 5246 5243 5241 5238 5236 5233 5231 5228 5225 5223 5221 5220 5217
5276 5274 5272 5271 5270 5270 5270 5271 5272 5272 5272 5272 5273 5273 5273 5272 5271 5271 5269 5268 5266 5264 5263 5261 5260 5257 5254 5252 5250 5247 5244 5242 5239 5237 5233 5231 5228 5226 5223 5220 5218 5216 5214